Location: Balsareny
(41.8670°N, 1.8830°E)
Time: 08:48:16
(UTC+01:00)

ISS - Visible Passes

Search period start: 17 February 2019 00:00
Search period end: 27 February 2019 00:00
Orbit: 403 x 411 km, 51.6° (Epoch: 17 February)

Date Brightness Start Highest point End Pass type
(mag) Time Alt. Az. Time Alt. Az. Time Alt. Az.
23 Feb -1.6 06:31:11 10° SSW 06:33:54 24° SE 06:36:37 10° ENE visible
24 Feb -0.9 05:40:55 10° SSE 05:42:36 13° SE 05:44:17 10° E visible
25 Feb -3.4 06:24:44 15° SW 06:27:14 62° SE 06:30:29 10° ENE visible
26 Feb -2.4 05:35:46 32° SE 05:35:49 32° SE 05:38:47 10° ENE visible
